Weather Roundup
Issued by NWS Chicago, IL

Home | Current Version | Previous Version | Graphics & Text | Print | Product List | Glossary On
Versions: 1 2 3 4 5 6 7 8 9 10 11 12 13 14 15 16 17 18 19 20 21 22 23 24 25 26 27 28 29 30 31 32 33 34 35 36 37 38 39 40 41 42 43 44 45 46 47 48 49 50
000
NZUS59 KLOT 050408
HRRLOT

CHICAGO AREA WEATHER ROUNDUP
NATIONAL WEATHER SERVICE CHICAGO/ROMEOVILLE IL
1100 PM CDT SAT JUL 04 2015

NOTE: "FAIR" INDICATES FEW OR NO CLOUDS BELOW 12,000 FEET WITH NO
SIGNIFICANT WEATHER AND/OR OBSTRUCTIONS TO VISIBILITY.

* THESE STATIONS ARE NOT UNDER NWS QUALITY CONTROL. THEY ALSO MAY NOT
  REPORT WEATHER SUCH AS PRECIPITATION OR FOG.

ILZ005-006-012>014-019>023-050500-
NORTHEAST ILLINOIS

CITY           SKY/WX    TMP DP  RH WIND       PRES   REMARKS
OHARE          PTCLDY    67  57  70 SE6       30.03R SMOKE
MIDWAY         PTCLDY    73  58  59 CALM      30.03R SMOKE
AURORA         CLEAR     68  58  70 CALM      30.04R
LANSING*       CLEAR     65  59  81 CALM      30.03S
JOLIET*        CLEAR     65  62  91 CALM      30.03S
WAUKEGAN       CLEAR     62  55  77 CALM      30.03R HAZE
DUPAGE AIRPORT CLEAR     67  60  78 CALM      30.03R
WHEELING       CLEAR     66  56  70 CALM      30.05R
KANKAKEE*      CLEAR     66  64  93 CALM      30.05R
MORRIS*        CLEAR     69  63  81 CALM      30.01S
LEWIS AIRPORT* CLEAR     67  59  76 S3        30.04R HAZE
NORTHERLY IS     N/A     66  59  78 CALM        N/A
$$

WIZ051-052-058>065-066-070>072-050500-
SOUTHEAST WISCONSIN

CITY           SKY/WX    TMP DP  RH WIND       PRES   REMARKS
MILWAUKEE      MOCLDY    67  55  65 S3        30.02R
KENOSHA*       CLEAR     66  55  67 S7        30.03R
RACINE*        CLEAR     64  54  69 S3        30.04R
BURLINGTON     CLEAR     62  60  95 CALM      30.02S
WAUKESHA       CLEAR     68  61  77 S6        30.03S
WEST BEND      CLEAR     63  61  94 CALM      30.02R
$$

INZ001>003-010>013-019-020-050500-
NORTHWEST INDIANA

CITY           SKY/WX    TMP DP  RH WIND       PRES   REMARKS
GARY*          FOG      N/A N/A N/A CALM      30.04R VSB 1
MICHIGAN CITY* NOT AVBL
RENSSELAER*    NOT AVBL
VALPARAISO     CLEAR     67  60  78 SE3       30.05R
$$

LMZ740>746-050500-
SOUTHERN LAKE MICHIGAN

STATION/POSITION TIME  SKY/WX   TEMP WIND        PRES    VSBY
                                AIR  DIR/SP/G
                 (UTC)          (F)  (DEG/KT/KT) (MB)    (MI)
HARRISON CRIB    0300            68  180/  7/  7   N/A
BURNHAM HARBOR   0400            66   CALM  /  2   N/A
CALUMET HARBOR   0300            70  110/  3/  4   N/A
BURNS HARBOR     0300            74  170/  4/  7 1017.3R
MICHIGAN CITY    0300            71  110/  5/  6   N/A
$$

ABBREVIATIONS USED IN REMARKS
   TC - TEMPERATURE IN CELSIUS
  WCI - WIND CHILL INDEX
   HX - HEAT INDEX
  VSB - VISIBILITY
$$


USA.gov is the U.S. government's official web portal to all federal, state and local government web resources and services.